星链-34100 (STARLINK-34100)

导读

STARLINK-34100是美国于2025年6月13日发射的星链卫星,归属SpaceX的星链星座网络。星链项目旨在搭建全球覆盖的低轨卫星互联网,为地面偏远区域提供高速宽带接入服务。该卫星入轨后,将助力星链系统进一步扩容,提升全球卫星通信服务的覆盖范围与运行稳定性。

基本信息
目录编号:
64385
目录名称:
STARLINK-34100
国际标识:
2025-127R
轨道中心:
EARTH
卫星名称:
星链-34100
卫星全名:
星链-34100 (STARLINK-34100)
卫星状态:
在轨 (已飞行366 天)
发射日期:
2025-06-13 UTC
国别 :
美国 (US)
星等 :
--
轨道信息
数据来源 国际轨道数据
星历时间: 2026-06-14T03:21:29+0800
6小时前
查看轨道信息
半长轴: 6861.184km
偏心率: 0.0001229
轨道倾角: 42.994°
近地点辐角 264.997°
升交点赤经 357.243°
平近点角 95.074°
近地点: 482.203km
远地点: 483.891km
周期: 94.267分钟
每日圈数: 15.27581
详细信息
固有亮度:
5
最大亮度:
2.5
卫星平台:
Starlink V1.0
覆盖范围:
全球
运营商:
太空探索技术公司
运营商所在国:
美国
制造商(研发单位):
太空探索技术公司
制造商所在国:
美国
使用方式:
暂无
卫星简介
Starlink 计划是 SpaceX 推出的全球卫星互联网项目,通过发射低轨道卫星,为全球尤其是偏远地区提供高速、低延迟的互联网服务。自 2019 年起,Starlink 已部署数千颗卫星,旨在缩小全球数字鸿沟,推动互联网普及。该项目还为军事、航空等行业提供通信支持,带来广泛经济效益。
2D轨道图
3D轨道图
轨道高度分析图
轨道倾角分析图
轨道综合分析图
查看轨道综合分析图